FW1436 Weather Reports


Display with metric or nautical units.
time (UTC)temp
F
wind
direction
speed
MPH
gust
MPH
rain 1hr
in
rain 24hr
in
rain mn
in
humidity
%
barometer
mb
20260510194522 54 231 1.0 6.0 0.00 0.00 0.00 72 1010.5
20260510193017 54 181 1.0 7.0 0.00 0.00 0.00 72 1010.3
20260510191517 55 247 1.0 7.0 0.00 0.00 0.00 71 1010.1
20260510190016 56 245 1.0 6.0 0.00 0.00 0.00 69 1009.8
20260510184515 57 280 2.0 10.0 0.00 0.00 0.00 66 1009.7
20260510183015 58 248 3.0 10.0 0.00 0.00 0.00 64 1009.4
20260510181514 59 236 4.0 13.0 0.00 0.00 0.00 63 1009.4
20260510180015 59 212 2.0 12.0 0.00 0.00 0.00 62 1009.3
20260510174514 60 238 1.0 13.0 0.00 0.00 0.00 63 1009.2
20260510173013 60 303 3.0 12.0 0.00 0.00 0.00 62 1009.1
20260510171512 60 229 2.0 16.0 0.00 0.00 0.00 62 1009.0
20260510170011 59 285 3.0 14.0 0.00 0.00 0.00 64 1009.0
20260510164510 58 300 4.0 16.0 0.00 0.00 0.00 64 1009.1
20260510163011 58 259 6.0 14.0 0.00 0.00 0.00 62 1009.4
20260510161511 59 200 4.0 12.0 0.00 0.00 0.00 61 1009.1
20260510160007 60 264 4.0 15.0 0.00 0.00 0.00 62 1009.0
20260510154506 59 281 6.0 15.0 0.00 0.00 0.00 63 1009.0
20260510153004 59 242 6.0 18.0 0.00 0.00 0.00 64 1009.3
20260510151600 58 238 6.0 20.0 0.00 0.00 0.00 64 1009.4
20260510150057 58 293 3.0 12.0 0.00 0.00 0.00 70 1009.6
20260510144609 56 188 6.0 14.0 0.00 0.00 0.00 71 1009.8
20260510143106 55 250 4.0 16.0 0.00 0.00 0.00 77 1010.2
20260510141551 54 219 3.0 13.0 0.00 0.00 0.00 78 1010.1
20260510140049 55 165 5.0 15.0 0.00 0.00 0.00 79 1010.3
20260510134604 56 237 4.0 11.0 0.00 0.00 0.00 81 1009.8
20260510133047 55 206 2.0 10.0 0.00 0.00 0.00 84 1010.0
20260510131547 54 252 3.0 8.0 0.00 0.00 0.00 89 1009.7
20260510130047 53 217 2.0 9.0 0.00 0.00 0.00 90 1009.9
20260510124554 53 161 2.0 11.0 0.00 0.00 0.00 88 1010.0
20260510123044 53 275 2.0 12.0 0.00 0.00 0.00 91 1009.9
20260510121544 52 226 4.0 9.0 0.00 0.00 0.00 92 1009.7
20260510120044 52 319 4.0 10.0 0.00 0.00 0.00 93 1010.1
20260510114543 51 226 1.0 9.0 0.00 0.00 0.00 93 1010.2
20260510113042 51 257 4.0 14.0 0.00 0.00 0.00 91 1010.2
20260510111554 52 243 3.0 16.0 0.00 0.00 0.00 92 1010.1
20260510110045 52 303 2.0 12.0 0.00 0.00 0.00 94 1009.8
20260510104551 51 271 2.0 11.0 0.00 0.00 0.00 93 1010.1
20260510103038 50 295 9.0 19.0 0.00 0.00 0.00 88 1010.1
20260510101538 56 193 2.0 13.0 0.00 0.00 0.00 80 1009.2
20260510100137 56 162 4.0 12.0 0.00 0.00 0.00 79 1009.3
20260510094539 56 244 2.0 11.0 0.00 0.00 0.00 82 1009.5
20260510093033 56 64 2.0 10.0 0.00 0.00 0.00 83 1009.6
20260510091533 56 193 2.0 14.0 0.00 0.00 0.00 82 1009.8
20260510090029 55 287 3.0 9.0 0.00 0.00 0.00 87 1009.9
20260510084524 54 181 2.0 11.0 0.00 0.00 0.00 91 1010.1
20260510083022 53 217 2.0 13.0 0.00 0.00 0.00 93 1010.2
20260510081519 53 207 1.0 8.0 0.00 0.00 0.00 96 1010.1
20260510080018 52 245 3.0 9.0 0.00 0.00 0.00 96 1010.3
20260510074516 51 142 1.0 4.0 0.00 0.00 0.00 96 1010.4
20260510073012 50 110 0.0 0.0 0.00 0.00 0.00 96 1010.4
20260510071513 50 131 0.0 0.0 0.00 0.00 0.00 96 1010.3
20260510070009 50 131 0.0 1.0 0.00 0.00 0.00 96 1010.3
20260510064507 49 136 0.0 0.0 0.00 0.00 0.00 96 1010.3
20260510063005 49 136 0.0 0.0 0.00 0.00 0.00 96 1010.2
20260510061505 49 145 0.0 0.0 0.00 0.00 0.00 96 1010.3
20260510060006 48 145 0.0 0.0 0.00 0.00 0.00 96 1009.9
20260510054504 48 134 0.0 0.0 0.00 0.00 0.00 96 1010.0
20260510053002 48 134 0.0 0.0 0.00 0.00 0.00 96 1010.0
20260510051502 48 134 0.0 0.0 0.00 0.00 0.00 96 1009.8
20260510050002 48 134 0.0 0.0 0.00 0.00 0.00 96 1009.9
20260510044501 48 266 0.0 0.0 0.00 0.00 0.00 96 1010.0
20260510043144 48 266 0.0 0.0 0.00 0.00 0.00 96 1010.0
20260510041559 48 300 0.0 2.0 0.00 0.00 0.00 96 1010.0
20260510040059 48 191 0.0 0.0 0.00 0.00 0.00 96 1010.0
20260510034558 48 191 0.0 0.0 0.00 0.00 0.00 96 1009.9
20260510033057 48 191 0.0 0.0 0.00 0.00 0.00 96 1010.1
20260510031626 48 195 0.0 2.0 0.00 0.00 0.00 96 1010.2
20260510030054 48 201 0.0 0.0 0.00 0.00 0.00 95 1010.3
20260510024552 48 241 0.0 2.0 0.00 0.00 0.00 95 1010.4
20260510023058 49 210 0.0 2.0 0.00 0.00 0.00 95 1010.5
20260510021550 49 238 0.0 2.0 0.00 0.00 0.00 96 1010.5
20260510020049 49 288 0.0 1.0 0.00 0.00 0.00 95 1010.4
20260510014545 49 245 0.0 2.0 0.00 0.00 0.00 95 1010.4
20260510013041 49 261 0.0 4.0 0.00 0.00 0.00 95 1010.4
20260510011545 49 235 0.0 4.0 0.00 0.00 0.00 95 1010.5
20260510010034 49 234 0.0 3.0 0.00 0.00 0.00 95 1010.6
20260510004532 49 260 1.0 5.0 0.00 0.00 0.00 95 1010.6
20260510003028 49 285 1.0 3.0 0.00 0.00 0.00 95 1010.6
20260510001526 49 250 0.0 6.0 0.00 0.00 0.00 95 1010.7
20260510000026 49 286 1.0 6.0 0.00 0.00 0.00 95 1010.7
20260509234525 49 219 1.0 7.0 0.00 0.00 0.00 95 1010.7
20260509233023 49 238 0.0 3.0 0.00 0.00 0.00 95 1010.8
20260509231522 49 252 0.0 3.0 0.00 0.00 0.00 95 1010.8
20260509230021 49 345 2.0 7.0 0.00 0.00 0.00 94 1010.7
20260509224520 49 258 2.0 7.0 0.00 0.00 0.00 94 1010.5
20260509223022 49 309 2.0 9.0 0.00 0.00 0.00 94 1010.5
20260509221515 49 272 1.0 4.0 0.00 0.00 0.00 94 1010.4
20260509220011 50 229 0.0 6.0 0.00 0.00 0.00 94 1010.2
20260509214509 50 254 0.0 6.0 0.00 0.00 0.00 94 1009.8
20260509213008 50 274 3.0 7.0 0.00 0.00 0.00 93 1009.6
20260509211507 50 284 1.0 10.0 0.00 0.00 0.00 93 1009.8
20260509210004 50 295 4.0 14.0 0.00 0.00 0.00 92 1009.6
20260509204504 51 276 5.0 16.0 0.00 0.00 0.00 90 1009.5
20260509203001 54 124 0.0 1.0 0.00 0.00 0.00 86 1008.0
20260509201501 54 153 1.0 5.0 0.00 0.00 0.00 85 1007.7
20260509200104 55 324 0.0 9.0 0.00 0.00 0.00 85 1007.5